Погода в Уральском

Россия / Удмуртская Республика     56°29′36″N   53°31′31″E
темп.,
°C
ветер,
м/с
пор.,
м/с
влажн.,
%
обл.,
%
осадки,
мм/ч
давл.,
гПа
погр.,
м
7 мая, пт
пт701:00+8ююз3684100 0.0 101796
04:00+8ююз4109056 0.0 1017168
07:00+11ююз5107759 0.0 1018275
10:00+17ююз695388 0.0 10171226
13:00+18ююз7944100 0.0 10172293
16:00+19ююз7847100 0.0 10162254
19:00+15ю4960100 0.0 1016269
22:00+13ю4965100 0.0 1016214
8 мая, сб
сб801:00+12ююз3973100 0.0 1016174
04:00+10зюз2277100 0.0 101733
07:00+11с2377100 0.0 1018162
10:00+15всв116287 0.0 1018677
13:00+18ю234598 0.0 10171784
16:00+19ю334086 0.0 10172241
19:00+16юз236272 0.0 101756
22:00+13ю226424 0.0 101710
9 мая, вс
вс901:00+11ююв227310 0.0 101713
04:00+10юв22772 0.0 101721
07:00+13юв47703 0.0 1017227
10:00+18ююв56524 0.0 1016911
13:00+21ю5640100 0.0 10162317
16:00+21ю4539100 0.0 10162031
19:00+17юв41059100 0.0 1016299
22:00+16ююв3959100 0.0 1017252
10 мая, пн
пн1001:00+15ююв3963100 0.0 1017198
04:00+12ююз2269100 0.0 101829
07:00+13зсз4583100 0.0 1020264
10:00+13зсз5579100 0.0 1021629
13:00+9ссз6785100 0.2 1024524
16:00+8ссз6986100 0.6 1025671
19:00+8с598889 3.6 1027791
22:00+6сз22945 3.6 102821
11 мая, вт
вт1101:00+5ссз359135 0.0 102983
04:00+4ссз228988 0.0 103126
07:00+8ссз237488 0.0 1032179
10:00+13сз235219 0.0 1032763
13:00+16сз344064 0.0 10311628
16:00+17зсз344189 0.0 10301643
19:00+15з345992 0.0 103087
22:00+12з346895 0.0 103049